sat.trackr.live / text

‹ back to catalog

AEHF-6 (USA 298)

NORAD 45465 · 2020-022B

PAYLOAD ACTIVE UNKNOWN

§ Identity

Operator
Country
US
Launch date
2020-03-26
Launch site
AFETR
Launch vehicle
Mass (kg)
RCS (m²)

Purposes: comms

External: N2YO · Heavens-Above · Gunter

§ Orbital elements

Epoch: 2026-09-19T21:02:57.856128Z

Period
1,436.15 min
Inclination
2.3531°
Eccentricity
0.0042217
Mean motion
1.00268356 rev/d
Perigee alt
35,609.5 km
Apogee alt
35,965.6 km
Semi-major
42,165.7 km
B*
0.0000e+0
RAAN
302.5745°
Arg perigee
10.7165°
Mean anomaly
138.9281°
Rev number
2,396

§ Raw data

AEHF-6 (USA 298)1 45465U 20022B   26262.87705852 -.00000304  00000+0  00000+0 0  99962 45465   2.3531 302.5745 0042217  10.7165 138.9281  1.00268356 23965

JSON: /api/v1/satellites/45465 · /tle

For live sub-satellite position, see the globe view (requires WebGL).

§ Visibility from observer

Set your observer location to see the next 7 days of passes ≥ 10°. The values pass through the URL so the page stays shareable.

No JS? Fill the form by hand. The geolocation button needs JavaScript.